{"data":{"norad_id":61517,"epoch":"2026-05-25T03:39:36.114048Z","epoch_age_seconds":65872,"freshness":"FRESH","line1":"1 61517U 24183J   26145.15250132 -.00001158  00000+0 -26990-4 0  9991","line2":"2 61517  53.1590 147.6296 0001051  78.4953 281.6166 15.30187242 91354","mean_motion":15.30187242,"eccentricity":0.0001051,"inclination_deg":53.159,"raan_deg":147.6296,"arg_perigee_deg":78.4953,"mean_anomaly_deg":281.6166,"bstar":-2.699e-5,"rev_number":9135,"period_min":94.106130313691,"perigee_km":474.53287146624,"apogee_km":475.97345407846,"semimajor_km":6853.3901627723,"source":"CELESTRAK","updated_at":"2026-05-25T13:38:19.390766Z"}}